CASSIOPE

导读

CASSIOPE是加拿大航天局研发的多任务小卫星,于当地时间2013年9月29日在范登堡空军基地由猎鹰9号v1.1火箭发射升空。它是加拿大首颗兼具科学研究与通信验证的混合卫星,携带双有效载荷:一方面开展极地电离层观测,研究空间气象规律;另一方面演示商业天基高速数据传输服务,验证新型空间通信技术,卫星质量约500kg,设计寿命2年。

Basic Information
目录编号:
39265
目录名称:
CASSIOPE
国际标识:
2013-055A
轨道中心:
EARTH
卫星名称:
CASSIOPE
卫星全名:
--
卫星状态:
在轨 (已飞行4723 天)
发射日期:
2013-09-29 UTC
国别 :
加拿大 (CA)
星等 :
--
Orbit Information
数据来源 国际轨道数据
星历时间: 2026-09-04T22:25:30+0800
9小时前
查看轨道信息
半长轴: 6851.915km
偏心率: 0.0272424
轨道倾角: 80.915°
近地点辐角 153.467°
升交点赤经 329.874°
平近点角 208.082°
近地点: 287.115km
远地点: 660.441km
周期: 94.076分钟
每日圈数: 15.306817
Detailed Information
使用方式:
暂无
2D Orbit Map
3D Orbit Map
Orbit Altitude Analysis Chart
Orbit Inclination Analysis Chart
Orbit Comprehensive Analysis Chart
View Comprehensive Chart
Conjunction Data List
Event ID Objects TCA Miss Dist (km) Collision Risk Probability Collision Risk Index (CRI) Action
CDM_260901-122603-926506-894626
CASSIOPE (39265)
2026-09-01T
12:26:39+0000
1.296 km
极远距离
8.8173E-6 低风险 0.54
CDM_260907-143803-926506-898621
CASSIOPE (39265)
2026-09-07T
14:38:39+0000
1.650 km
极远距离
5.003277E-6 低风险 0.49